This is the latest recevied weather packets stored in our database for station/object KY0TEQ-13. If no packets are shown the sender has not sent any weather packets the latest 10 day(s).
| Time | Temp. | Humidity | Pressure | Rain* | Wind** | Luminosity | Snow |
|---|---|---|---|---|---|---|---|
| 1777159069 | 15.56° C | 18% | 1294.4 hPa | 0 mm | - | 123 W/m² | - |
| 1777158765 | 16.11° C | 17% | 1294.8 hPa | 0 mm | - | 156 W/m² | - |
| 1777158464 | 16.11° C | 19% | 1294.5 hPa | 0 mm | - | 199 W/m² | - |
| 1777158160 | 16.11° C | 18% | 1294.8 hPa | 0 mm | - | 164 W/m² | - |
| 1777157856 | 16.67° C | 18% | 1294.8 hPa | 0 mm | - | 274 W/m² | - |
| 1777157552 | 16.11° C | 17% | 1294.6 hPa | 0 mm | - | 292 W/m² | - |
| 1777157249 | 16.67° C | 17% | 1294.6 hPa | 0 mm | - | 174 W/m² | - |
| 1777156948 | 16.67° C | 17% | 1294.4 hPa | 0 mm | - | 262 W/m² | - |
| 1777156643 | 15.56° C | 17% | 1294.5 hPa | 0 mm | - | 319 W/m² | - |
| 1777156340 | 16.11° C | 18% | 1294.6 hPa | 0 mm | - | 160 W/m² | - |
| 1777156037 | 16.11° C | 17% | 1294.4 hPa | 0 mm | - | 142 W/m² | - |
| 1777155733 | 17.22° C | 16% | 1294.9 hPa | 0 mm | - | 152 W/m² | - |
| 1777155429 | 16.67° C | 17% | 1294.9 hPa | 0 mm | - | 523 W/m² | - |
| 1777155126 | 17.22° C | 16% | 1295 hPa | 0 mm | - | 556 W/m² | - |
| 1777154823 | 17.78° C | 16% | 1295 hPa | 0 mm | - | 369 W/m² | - |
| 1777154519 | 16.11° C | 16% | 1294.9 hPa | 0 mm | - | 696 W/m² | - |
| 1777154215 | 16.11° C | 17% | 1294.9 hPa | 0 mm | - | 220 W/m² | - |
| 1777153911 | 15.56° C | 18% | 1295.1 hPa | 0 mm | - | 183 W/m² | - |
| 1777153607 | 15.56° C | 18% | 1295 hPa | 0 mm | - | 151 W/m² | - |
| 1777153303 | 16.11° C | 18% | 1295.3 hPa | 0 mm | - | 195 W/m² | - |
| 1777153000 | 16.67° C | 17% | 1295.3 hPa | 0 mm | - | 268 W/m² | - |
| 1777152697 | 17.22° C | 17% | 1295.5 hPa | 0 mm | - | 546 W/m² | - |
| 1777152393 | 16.11° C | 18% | 1295.4 hPa | 0 mm | - | 747 W/m² | - |
| 1777152090 | 17.22° C | 16% | 1295.5 hPa | 0 mm | - | 791 W/m² | - |
| 1777151785 | 15.56° C | 17% | 1295.6 hPa | 0 mm | - | 824 W/m² | - |
* Rain latest hour (hover to see other rain measurements)
** Current wind speed in m/s (hover to see current wind gust speed)